Flag for Turkey Weather past 2 weeks in Bursa, Turkey

Now
55 °F

Passing clouds.


Feels Like: 55 °F
Forecast: 46 / 56 °F
Wind: 2 mph from North

Location: Bursa

Current Time: Feb 27, 2015 at 7:55:34 PM

Latest Report: Feb 27, 2015 at 7:00 PM


Visibility: 9 mi

Pressure: 29.79 "Hg

Humidity: 75%

Dew point: 47 °F

Location of BursaLocation

Historic Weather in Bursa — Graph

°F

Bursa temperature yesterday

Maximum temperature yesterday: 63 °F (at 3:00 PM)
Minimum temperature yesterday: 44 °F (at 11:00 PM)
Average temperature yesterday: 55 °F

Past Weeks' High & Low Weather Summary

 TemperatureHumidityPressure
High64 °F (Feb 27, 4:00 PM)100% (Feb 19, 7:00 AM)30.45 "Hg (Feb 19, 7:00 AM)
Low26 °F (Feb 18, 8:00 AM)41% (Feb 22, 2:00 PM)29.75 "Hg (Feb 24, 4:00 PM)
Average43 °F80%30.14 "Hg
* Reported Feb 12 6:00 PM — Feb 27 6:00 PM, Bursa, Weather by CustomWeather, © 2015

Note: Actual official high and low records may vary slightly from our data, if they occured in-between our weather recording intervals... More about our weather records

Advertising

Bursa weather history for previous 24 hours

 ConditionsComfort  
Time TempWeatherWind HumidityBarometerVisibility
6:00 PM
Fri, Feb 27
58 °FPassing clouds.5 mph69%29.78 "Hg9 mi
5:00 PM63 °FPartly sunny.3 mph58%29.81 "Hg9 mi
4:00 PM64 °FPartly sunny.2 mph53%29.84 "Hg9 mi
3:00 PM64 °FPartly sunny.2 mph52%29.84 "Hg9 mi
2:00 PM63 °FOvercast.2 mph54%29.88 "Hg9 mi
1:00 PM63 °FPartly sunny.3 mph58%29.90 "Hg9 mi
12:00 PM59 °FPartly sunny.8 mph62%29.93 "Hg9 mi
11:00 AM58 °FPartly sunny.12 mph63%29.96 "Hg9 mi
10:00 AM57 °FPartly sunny.9 mph67%29.98 "Hg9 mi
9:00 AM53 °FPartly sunny.5 mph75%30.02 "Hg7 mi
8:00 AM46 °FPartly sunny.3 mph88%30.04 "Hg7 mi
7:00 AM44 °FScattered clouds.5 mph89%30.04 "Hg7 mi
6:00 AM45 °FPassing clouds.3 mph87%30.06 "Hg7 mi
3:00 AM40 °FClear.1 mph98%30.10 "Hg7 mi
2:00 AM41 °FClear.1 mph97%30.12 "Hg7 mi
1:00 AM41 °FClear.1 mph98%30.13 "Hg7 mi
12:00 AM43 °FClear.1 mph96%30.14 "Hg7 mi
11:00 PM
Thu, Feb 26
44 °FClear.1 mph92%30.16 "Hg7 mi
10:00 PM48 °FClear.1 mph86%30.17 "Hg7 mi
9:00 PM47 °FClear.2 mph86%30.17 "Hg7 mi
8:00 PM50 °FClear.1 mph82%30.18 "Hg7 mi
7:00 PM56 °FPassing clouds.1 mph71%30.18 "Hg9 mi
Weather by CustomWeather, © 2015

See weather overviewHow to use our weather pages